GW6880 Weather Reports


time (UTC)temp
C
wind
direction
speed
KPH
gust
KPH
rain 1hr
cm
rain 24hr
cm
rain mn
cm
humidity
%
barometer
mb
20260506214844 21 340 4.8 9.7 0.00 0.00 0.00 72 1012.1
20260506214341 21 9 0.0 8.0 0.00 0.00 0.00 73 1012.3
20260506213839 21 33 3.2 14.5 0.00 0.00 0.00 73 1012.3
20260506213336 21 322 4.8 16.1 0.00 0.00 0.00 72 1012.1
20260506212833 22 351 3.2 14.5 0.00 0.00 0.00 71 1012.0
20260506212329 22 106 3.2 8.0 0.00 0.00 0.00 70 1012.0
20260506211824 22 106 4.8 16.1 0.00 0.00 0.00 71 1011.9
20260506211320 22 72 0.0 14.5 0.00 0.00 0.00 71 1011.9
20260506210818 23 137 1.6 9.7 0.00 0.00 0.00 70 1011.9
20260506210315 23 55 4.8 12.9 0.00 0.00 0.00 71 1011.6
20260506205812 23 357 6.4 11.3 0.00 0.00 0.00 69 1011.8
20260506205308 24 98 0.0 4.8 0.00 0.00 0.00 69 1011.9
20260506204804 23 85 3.2 12.9 0.00 0.00 0.00 70 1012.1
20260506204302 24 327 0.0 1.6 0.00 0.00 0.00 72 1012.3
20260506203800 23 348 1.6 11.3 0.00 0.00 0.00 72 1012.4
20260506203257 23 51 1.6 8.0 0.00 0.00 0.00 72 1012.3
20260506202754 23 262 0.0 8.0 0.00 0.00 0.00 73 1012.2
20260506202251 23 286 3.2 11.3 0.00 0.00 0.00 74 1012.3
20260506201747 23 37 1.6 8.0 0.00 0.00 0.00 74 1012.1
20260506201244 23 351 1.6 9.7 0.00 0.00 0.00 74 1012.0
20260506200741 23 37 1.6 8.0 0.00 0.00 0.00 74 1011.8
20260506200237 25 36 4.8 9.7 0.00 0.00 0.00 73 1011.8
20260506195733 25 39 1.6 4.8 0.00 0.00 0.00 74 1011.8
20260506195230 25 337 0.0 4.8 0.00 0.00 0.00 74 1011.1
20260506194728 25 42 0.0 1.6 0.00 0.00 0.00 74 1011.4
20260506194224 25 85 4.8 9.7 0.00 0.00 0.00 74 1011.4
20260506193722 25 39 4.8 4.8 0.00 0.00 0.00 74 1011.6
20260506193218 25 353 1.6 4.8 0.00 0.00 0.00 74 1011.3
20260506192715 25 346 3.2 8.0 0.00 0.00 0.00 74 1011.5
20260506192212 26 71 1.6 8.0 0.00 0.00 0.00 73 1011.4
20260506191708 27 354 0.0 9.7 0.00 0.00 0.00 71 1011.6
20260506191204 26 286 1.6 3.2 0.00 0.00 0.00 72 1011.6
20260506190702 26 4 1.6 3.2 0.00 0.00 0.00 72 1011.6
20260506190158 25 5 0.0 1.6 0.00 0.00 0.00 74 1011.7
20260506185656 26 55 4.8 9.7 0.00 0.00 0.00 73 1011.8
20260506185152 26 314 0.0 1.6 0.00 0.00 0.00 74 1011.6
20260506184650 25 60 0.0 3.2 0.00 0.00 0.00 74 1011.6
20260506184147 25 55 4.8 11.3 0.00 0.00 0.00 73 1011.6
20260506183643 25 77 3.2 8.0 0.00 0.00 0.00 73 1011.7
20260506183139 25 77 4.8 4.8 0.00 0.00 0.00 74 1011.8
20260506182637 25 21 1.6 3.2 0.00 0.00 0.00 75 1011.9
20260506182134 23 188 1.6 4.8 0.00 0.00 0.00 77 1012.1
20260506181632 23 120 3.2 4.8 0.00 0.00 0.00 77 1011.8
20260506181129 23 46 4.8 4.8 0.00 0.00 0.00 78 1012.1
20260506180625 22 10 1.6 4.8 0.00 0.00 0.00 80 1011.7
20260506180122 22 24 3.2 4.8 0.00 0.00 0.00 81 1011.8
20260506175618 22 63 6.4 11.3 0.00 0.00 0.00 80 1012.0
20260506175114 21 63 0.0 1.6 0.00 0.00 0.00 82 1012.1
20260506174613 22 36 4.8 4.8 0.00 0.00 0.00 81 1012.0
20260506174109 21 66 11.3 16.1 0.00 0.00 0.00 81 1011.8
20260506173607 21 78 4.8 8.0 0.00 0.00 0.00 82 1011.9
20260506173103 21 94 4.8 4.8 0.00 0.00 0.00 82 1012.2
20260506172601 21 356 3.2 4.8 0.00 0.00 0.00 83 1012.2
20260506172057 21 11 3.2 3.2 0.00 0.00 0.00 83 1012.1
20260506171555 21 72 3.2 3.2 0.00 0.00 0.00 84 1012.0
20260506171052 21 92 3.2 8.0 0.00 0.00 0.00 85 1012.1
20260506170550 20 84 4.8 9.7 0.00 0.00 0.00 86 1012.1
20260506170047 20 3 8.0 11.3 0.00 0.00 0.00 87 1012.3
20260506165545 20 82 1.6 4.8 0.00 0.00 0.00 88 1012.5
20260506165041 20 8 4.8 9.7 0.00 0.00 0.00 88 1012.5
20260506164538 20 67 0.0 3.2 0.00 0.00 0.00 91 1012.2
20260506164036 19 38 4.8 4.8 0.00 0.00 0.00 91 1012.8
20260506163531 18 275 1.6 3.2 0.00 0.00 0.00 91 1013.0
20260506163027 19 327 1.6 3.2 0.00 0.00 0.00 91 1013.3
20260506162524 19 41 3.2 11.3 0.00 0.00 0.00 91 1013.2
20260506162021 20 298 3.2 8.0 0.00 0.00 0.00 91 1013.4
20260506161518 20 28 1.6 3.2 0.00 0.00 0.00 90 1013.2
20260506161015 20 47 3.2 4.8 0.00 0.00 0.00 89 1013.0
20260506160513 21 31 1.6 3.2 0.00 0.00 0.00 88 1012.9
20260506160011 22 351 8.0 16.1 0.00 0.00 0.00 87 1012.8
20260506155509 25 11 3.2 9.7 0.00 0.00 0.00 87 1012.6
20260506153640 25 346 0.0 0.0 0.00 0.00 0.00 91 1011.9
20260506153137 25 57 0.0 1.6 0.00 0.00 0.00 91 1011.9
20260506152634 25 57 0.0 1.6 0.00 0.00 0.00 91 1011.7
20260506152131 25 87 0.0 0.0 0.00 0.00 0.00 91 1011.5
20260506151630 25 87 0.0 0.0 0.00 0.00 0.00 91 1011.6
20260506151126 25 87 0.0 0.0 0.00 0.00 0.00 91 1011.4
20260506150623 25 26 1.6 1.6 0.00 0.00 0.00 90 1011.2
20260506150120 25 26 1.6 1.6 0.00 0.00 0.00 90 1011.0
20260506145617 25 232 0.0 0.0 0.00 0.00 0.00 90 1011.1
20260506145114 25 234 0.0 1.6 0.00 0.00 0.00 90 1010.7
20260506144611 25 226 1.6 3.2 0.00 0.00 0.00 90 1010.5
20260506144108 25 59 0.0 1.6 0.00 0.00 0.00 91 1010.7
20260506143606 25 59 0.0 1.6 0.00 0.00 0.00 91 1010.6
20260506143104 25 59 0.0 1.6 0.00 0.00 0.00 91 1010.3
20260506142601 25 157 1.6 3.2 0.00 0.00 0.00 91 1010.4
20260506142100 25 105 0.0 0.0 0.00 0.00 0.00 91 1010.3
20260506141557 25 105 0.0 0.0 0.00 0.00 0.00 91 1010.5
20260506141055 25 105 0.0 0.0 0.00 0.00 0.00 91 1010.5
20260506140552 25 104 0.0 0.0 0.00 0.00 0.00 91 1010.8
20260506140049 25 99 0.0 0.0 0.00 0.00 0.00 92 1010.5
20260506135546 25 99 0.0 0.0 0.00 0.00 0.00 92 1010.3
20260506135042 25 123 0.0 0.0 0.00 0.00 0.00 92 1009.9
20260506134539 25 303 0.0 1.6 0.00 0.00 0.00 92 1010.1
20260506134035 25 102 1.6 1.6 0.00 0.00 0.00 93 1009.9
20260506133532 25 46 0.0 1.6 0.00 0.00 0.00 93 1010.1
20260506133029 24 109 3.2 3.2 0.00 0.00 0.00 93 1009.8
20260506132526 24 170 0.0 1.6 0.00 0.00 0.00 93 1010.1
20260506132024 24 95 3.2 4.8 0.00 0.00 0.00 93 1009.9
20260506131520 24 199 1.6 1.6 0.00 0.00 0.00 93 1009.7
20260506131017 24 61 1.6 1.6 0.00 0.00 0.00 93 1009.7
20260506130514 24 198 0.0 0.0 0.00 0.00 0.00 93 1009.9
20260506130011 24 218 1.6 3.2 0.00 0.00 0.00 93 1009.8
20260506125510 24 217 1.6 1.6 0.00 0.00 0.00 93 1009.5
20260506125007 24 147 3.2 3.2 0.00 0.00 0.00 93 1009.5
20260506124505 24 205 1.6 1.6 0.00 0.00 0.00 93 1009.7
20260506124002 24 205 1.6 1.6 0.00 0.00 0.00 93 1009.6
20260506123500 24 197 0.0 0.0 0.00 0.00 0.00 93 1009.5
20260506122958 24 202 0.0 0.0 0.00 0.00 0.00 93 1009.6
20260506122454 24 215 0.0 1.6 0.00 0.00 0.00 93 1009.7
20260506121953 24 184 1.6 3.2 0.00 0.00 0.00 93 1009.7
20260506121449 24 213 0.0 1.6 0.00 0.00 0.00 93 1009.7
20260506120946 24 178 0.0 1.6 0.00 0.00 0.00 93 1009.5
20260506120444 24 125 1.6 3.2 0.00 0.00 0.00 93 1009.4
20260506115941 24 186 0.0 1.6 0.00 0.00 0.00 93 1009.4
20260506115439 24 181 0.0 1.6 0.00 0.00 0.00 93 1009.3
20260506114937 24 224 0.0 0.0 0.00 0.00 0.00 93 1009.3
20260506114434 24 224 0.0 1.6 0.00 0.00 0.00 93 1009.3
20260506113933 24 220 0.0 0.0 0.00 0.00 0.00 93 1009.3
20260506113430 24 219 0.0 0.0 0.00 0.00 0.00 93 1009.6
20260506112926 24 235 0.0 0.0 0.00 0.00 0.00 93 1009.3
20260506112424 24 197 0.0 1.6 0.00 0.00 0.00 93 1009.3
20260506111921 24 188 0.0 3.2 0.00 0.00 0.00 93 1009.6
20260506111419 24 217 0.0 1.6 0.00 0.00 0.00 93 1009.3
20260506110916 24 221 0.0 1.6 0.00 0.00 0.00 93 1009.4
20260506110414 24 163 0.0 3.2 0.00 0.00 0.00 93 1009.3
20260506105910 24 181 1.6 3.2 0.00 0.00 0.00 93 1009.5
20260506105406 24 205 0.0 0.0 0.00 0.00 0.00 93 1009.2
20260506104904 24 223 1.6 1.6 0.00 0.00 0.00 93 1009.2
20260506104402 24 251 0.0 3.2 0.00 0.00 0.00 93 1009.2
20260506103859 24 157 1.6 3.2 0.00 0.00 0.00 93 1009.0
20260506103356 24 157 1.6 3.2 0.00 0.00 0.00 93 1009.1
20260506102853 24 157 1.6 3.2 0.00 0.00 0.00 93 1009.0
20260506102352 24 205 0.0 0.0 0.00 0.00 0.00 93 1009.0
20260506101848 24 189 1.6 1.6 0.00 0.00 0.00 93 1008.8
20260506101344 24 189 1.6 1.6 0.00 0.00 0.00 93 1008.7
20260506100842 24 195 1.6 3.2 0.00 0.00 0.00 93 1008.5
20260506100341 24 240 0.0 1.6 0.00 0.00 0.00 93 1008.8
20260506095839 24 117 3.2 8.0 0.00 0.00 0.00 93 1008.6
20260506095335 24 239 0.0 0.0 0.00 0.00 0.00 93 1008.8
20260506094832 24 237 0.0 3.2 0.00 0.00 0.00 93 1008.6
20260506094331 24 219 1.6 1.6 0.00 0.00 0.00 93 1008.6
20260506093829 24 116 4.8 8.0 0.00 0.00 0.00 93 1008.5
20260506093325 24 127 4.8 8.0 0.00 0.00 0.00 93 1008.4
20260506092823 24 191 1.6 3.2 0.00 0.00 0.00 92 1008.4
20260506092321 24 191 1.6 3.2 0.00 0.00 0.00 92 1008.3
20260506091818 24 191 1.6 3.2 0.00 0.00 0.00 92 1008.1
20260506091316 24 191 1.6 3.2 0.00 0.00 0.00 92 1008.1
20260506090813 24 191 1.6 3.2 0.00 0.00 0.00 92 1008.3
20260506090310 24 191 1.6 3.2 0.00 0.00 0.00 92 1008.3
20260506085807 24 191 1.6 3.2 0.00 0.00 0.00 92 1008.4
20260506085305 24 191 1.6 3.2 0.00 0.00 0.00 92 1008.1
20260506084800 24 191 1.6 3.2 0.00 0.00 0.00 92 1008.1
20260506084256 24 244 0.0 1.6 0.00 0.00 0.00 92 1008.4
20260506083753 24 309 0.0 0.0 0.00 0.00 0.00 92 1008.6
20260506083251 24 309 0.0 0.0 0.00 0.00 0.00 92 1008.1
20260506082748 24 309 0.0 0.0 0.00 0.00 0.00 92 1008.3
20260506082243 24 309 0.0 0.0 0.00 0.00 0.00 92 1008.1
20260506081741 24 309 0.0 0.0 0.00 0.00 0.00 92 1008.4
20260506081238 24 309 0.0 0.0 0.00 0.00 0.00 92 1008.2
20260506080737 24 186 3.2 3.2 0.00 0.00 0.00 92 1008.4
20260506080233 24 128 1.6 1.6 0.00 0.00 0.00 92 1008.5
20260506073217 24 223 0.0 0.0 0.00 0.00 0.00 92 1008.6
20260506072713 24 209 0.0 1.6 0.00 0.00 0.00 92 1008.5
20260506072211 24 237 0.0 1.6 0.00 0.00 0.00 92 1008.7
20260506071708 25 151 3.2 3.2 0.00 0.00 0.00 91 1008.6
20260506071206 25 217 4.8 4.8 0.00 0.00 0.00 91 1008.9
20260506070703 25 131 0.0 1.6 0.00 0.00 0.00 91 1008.8
20260506070200 25 315 1.6 1.6 0.00 0.00 0.00 91 1008.9
20260506062137 24 173 4.8 4.8 0.00 0.00 0.00 91 1009.1
20260506061633 24 173 4.8 4.8 0.00 0.00 0.00 91 1009.0
20260506061131 24 173 4.8 4.8 0.00 0.00 0.00 91 1008.7
20260506060629 24 151 0.0 1.6 0.00 0.00 0.00 92 1008.7
20260506060126 24 151 0.0 1.6 0.00 0.00 0.00 92 1008.9
20260506051057 25 204 8.0 9.7 0.00 0.00 0.00 91 1009.1
20260506050555 25 204 8.0 9.7 0.00 0.00 0.00 91 1009.0
20260506045046 25 164 1.6 4.8 0.00 0.00 0.00 90 1009.0
20260506044544 25 226 0.0 0.0 0.00 0.00 0.00 90 1009.0
20260506044040 25 195 4.8 4.8 0.00 0.00 0.00 90 1009.0
20260506043537 25 185 4.8 8.0 0.00 0.00 0.00 90 1008.8
20260506043036 25 225 3.2 9.7 0.00 0.00 0.00 90 1008.8
20260506042535 25 194 4.8 4.8 0.00 0.00 0.00 89 1008.9
20260506042032 25 231 1.6 4.8 0.00 0.00 0.00 89 1008.7
20260506041531 25 195 4.8 4.8 0.00 0.00 0.00 89 1008.9
20260506041027 25 170 1.6 8.0 0.00 0.00 0.00 89 1008.7
20260506040525 25 124 1.6 3.2 0.00 0.00 0.00 89 1008.6
20260506040021 25 113 3.2 8.0 0.00 0.00 0.00 88 1008.4
20260506035518 25 171 1.6 8.0 0.00 0.00 0.00 88 1008.4
20260506035014 25 204 0.0 1.6 0.00 0.00 0.00 88 1008.5
20260506034512 25 230 1.6 3.2 0.00 0.00 0.00 88 1008.2
20260506034009 25 132 4.8 8.0 0.00 0.00 0.00 88 1008.4
20260506033506 25 137 3.2 3.2 0.00 0.00 0.00 88 1008.4
20260506033003 25 211 3.2 4.8 0.00 0.00 0.00 88 1008.2
20260506032500 25 143 1.6 8.0 0.00 0.00 0.00 87 1008.1
20260506031956 26 156 3.2 8.0 0.00 0.00 0.00 87 1008.1
20260506031454 26 185 3.2 8.0 0.00 0.00 0.00 87 1007.9
20260506030951 26 208 1.6 3.2 0.00 0.00 0.00 86 1007.9
20260506030449 26 198 1.6 4.8 0.00 0.00 0.00 86 1007.7
20260506025946 26 156 3.2 8.0 0.00 0.00 0.00 86 1007.8
20260506025443 26 196 0.0 4.8 0.00 0.00 0.00 86 1007.7
20260506024939 26 155 3.2 8.0 0.00 0.00 0.00 86 1007.8
20260506024436 26 202 3.2 4.8 0.00 0.00 0.00 86 1007.5
20260506023932 26 181 6.4 8.0 0.00 0.00 0.00 85 1007.1
20260506023429 26 213 4.8 8.0 0.00 0.00 0.00 85 1007.6
20260506022926 26 70 1.6 8.0 0.00 0.00 0.00 84 1007.1
20260506022424 26 134 8.0 12.9 0.00 0.00 0.00 83 1006.9
20260506021922 26 175 3.2 11.3 0.00 0.00 0.00 83 1006.8
20260506021418 26 190 1.6 4.8 0.00 0.00 0.00 82 1006.8
20260506020915 26 216 1.6 4.8 0.00 0.00 0.00 81 1006.9
20260506020413 27 200 1.6 4.8 0.00 0.00 0.00 81 1006.6
20260506015910 27 211 3.2 4.8 0.00 0.00 0.00 81 1006.8
20260506015408 27 190 3.2 8.0 0.00 0.00 0.00 81 1006.4
20260506014904 27 195 1.6 4.8 0.00 0.00 0.00 80 1006.5
20260506014401 27 208 0.0 3.2 0.00 0.00 0.00 80 1006.5
20260506013858 27 172 0.0 8.0 0.00 0.00 0.00 80 1006.5
20260506013356 27 182 4.8 4.8 0.00 0.00 0.00 80 1006.3
20260506012851 27 190 1.6 3.2 0.00 0.00 0.00 79 1006.4
20260506012348 27 202 1.6 4.8 0.00 0.00 0.00 79 1006.5
20260506011846 27 182 1.6 1.6 0.00 0.00 0.00 78 1006.6
20260506011343 27 191 1.6 1.6 0.00 0.00 0.00 78 1006.7
20260506010840 27 172 1.6 1.6 0.00 0.00 0.00 77 1006.6
20260506010338 28 203 4.8 4.8 0.00 0.00 0.00 76 1006.4
20260506005834 28 150 3.2 4.8 0.00 0.00 0.00 76 1006.4
20260506005331 28 218 0.0 1.6 0.00 0.00 0.00 76 1006.3
20260506004827 28 167 3.2 4.8 0.00 0.00 0.00 76 1006.3
20260506004325 28 222 0.0 3.2 0.00 0.00 0.00 76 1006.2
20260506003821 28 196 1.6 3.2 0.00 0.00 0.00 76 1006.3
20260506003317 28 170 0.0 3.2 0.00 0.00 0.00 76 1006.5
20260506002814 28 206 1.6 3.2 0.00 0.00 0.00 76 1006.1
20260506002310 28 218 0.0 3.2 0.00 0.00 0.00 76 1006.2
20260506001806 28 192 3.2 4.8 0.00 0.00 0.00 75 1006.2
20260506001303 28 209 1.6 3.2 0.00 0.00 0.00 75 1006.3
20260506000800 28 198 1.6 4.8 0.00 0.00 0.00 74 1006.2
20260506000258 28 158 1.6 4.8 0.00 0.00 0.00 74 1006.0
20260505235755 28 208 4.8 8.0 0.00 0.00 0.00 74 1006.0
20260505235252 28 150 3.2 4.8 0.00 0.00 0.00 74 1006.0
20260505234749 28 256 0.0 3.2 0.00 0.00 0.00 75 1006.1
20260505234247 28 213 4.8 8.0 0.00 0.00 0.00 74 1006.0
20260505233743 28 187 4.8 4.8 0.00 0.00 0.00 74 1006.0
20260505233241 28 104 3.2 4.8 0.00 0.00 0.00 74 1006.0
20260505232738 28 240 3.2 3.2 0.00 0.00 0.00 73 1006.1
20260505232235 28 208 3.2 3.2 0.00 0.00 0.00 73 1006.0
20260505231732 28 201 4.8 8.0 0.00 0.00 0.00 73 1006.0
20260505231231 28 156 4.8 9.7 0.00 0.00 0.00 73 1005.9
20260505230729 29 227 0.0 1.6 0.00 0.00 0.00 73 1005.7
20260505230225 28 298 1.6 1.6 0.00 0.00 0.00 73 1005.9
20260505225722 29 161 3.2 8.0 0.00 0.00 0.00 73 1005.7
20260505225219 29 241 0.0 4.8 0.00 0.00 0.00 73 1005.9
20260505224714 29 219 3.2 4.8 0.00 0.00 0.00 73 1005.8
20260505224212 28 174 1.6 8.0 0.00 0.00 0.00 72 1005.7
20260505223709 29 218 8.0 14.5 0.00 0.00 0.00 71 1005.9
20260505223205 29 148 0.0 8.0 0.00 0.00 0.00 72 1006.1
20260505222701 28 181 3.2 11.3 0.00 0.00 0.00 71 1005.9
20260505222157 29 158 4.8 9.7 0.00 0.00 0.00 72 1005.8
20260505221655 29 114 4.8 8.0 0.00 0.00 0.00 72 1005.9
20260505221151 29 203 4.8 12.9 0.00 0.00 0.00 72 1005.6
20260505220649 29 214 1.6 9.7 0.00 0.00 0.00 71 1006.0
20260505220146 29 175 3.2 3.2 0.00 0.00 0.00 71 1005.9
20260505215644 29 197 4.8 4.8 0.00 0.00 0.00 72 1006.2
20260505215142 28 122 4.8 4.8 0.00 0.00 0.00 72 1006.4